Location: Newark
(52.3500°N, 175.9667°E)
Time: 06:53:12
(UTC+00:00)

S-56A Canister/Altair - Pass Details

Date: 28 April 2021
Orbit: 631 x 2501 km, 38.9° (Epoch: 12 May)

Event Time Altitude Azimuth Distance (km) Brightness Sun altitude
Rises 07:17:42 0° 202° (SSW) 5,862 12.0 1.8°
Reaches altitude 10° 07:23:30 10° 186° (S) 4,567 11.3 1.0°
Maximum altitude 07:30:31 18° 151° (SSE) 3,515 10.5 0.0°
Drops below altitude 10° 07:36:19 10° 114° (ESE) 3,653 10.3 -0.8°
Sets 07:40:09 0° 95° (E) 4,300 10.7 -1.3°
